EXPRESS-AMU1

Last updated on Tue Sep 22 2026 00:03:13 GMT+0000 (Coordinated Universal Time)

1 41191U 15082A 26264.49609072 .00000152 00000+0 00000+0 0 9995 2 41191 0.0120 119.6804 0002455 67.8013 27.5915 1.00273834 39235
UTC large
Height (km)
Speed (km/s)
/
Latitude / Longitude
Inclination (degrees)
Orbital Period (minutes)
Azimuth
Elevation
Range (km)
Doppler Factor

Next 0 passes for location: London (51.5072 / 0.1276)

No passes found over London.
EXPRESS-AMU1